Location: Helsinki
(60.1699°N, 24.9384°E)
Time: 23:41:36
(UTC+02:00)

Altair - Pass Details

Date: 28 October 2020
Orbit: 1502 x 1682 km, 47.2° (Epoch: 25 November)

Event Time Altitude Azimuth Distance (km) Brightness Sun altitude
Rises 05:56:05 0° 216° (SW) 4,660 9.7 -12.5°
Reaches altitude 10° 05:59:37 10° 205° (SSW) 3,699 9.3 -12.0°
Maximum altitude 06:07:04 28° 152° (SSE) 2,612 9.1 -11.1°
Drops below altitude 10° 06:14:44 10° 98° (E) 3,816 11.2 -10.2°
Sets 06:18:26 0° 88° (E) 4,831 12.1 -9.7°
